Weather in Quimper

France     47°59′50″N   4°06′05″W
temp.,
°C
wind,
m/s
gust,
m/s
humid.,
%
clouds,
%
prec.,
mm/h
press.,
hPa
HPBL,
m
12 may, wed
wed1223:00+7ssw2593100 0.1 1012113
02:00+7s249298 0.3 101289
05:00+6se2293100 0.1 101025
08:00+8se3998100 2.6 1008504
11:00+11sse8139280 4.1 1005902
14:00+12ssw6993100 6.3 1004924
17:00+9wnw6118726 7.6 10081069
20:00+11w49745 7.7 10091136
13 may, thu
thu1323:00+9wsw4119461 0.6 1009721
02:00+9wsw5129563 1.3 1009692
05:00+9wsw5129576 0.3 1008660
08:00+9wsw51093100 1.5 1008837
11:00+12wnw578061 0.5 1008987
14:00+15wnw67629 0.9 10081450
17:00+14nw68594 0.1 10091324
20:00+11wnw58760 0.1 10101024
14 may, fri
fri1423:00+10nw5973100 0.0 1011983
02:00+10wnw487581 0.0 1011995
05:00+8wnw3119494 0.1 1011442
08:00+9w28925 0.2 1012436
11:00+13nw587031 0.1 10131152
14:00+14wnw676245 0.7 10131442
17:00+14w5658100 0.1 10131149
20:00+11sw3780100 0.1 1013799
15 may, sat
sat1523:00+9ssw3891100 0.3 1012442
02:00+9s61196100 2.4 1009796
05:00+11s51199100 1.1 1005662
08:00+12wsw3998100 1.5 1004511
11:00+12wsw4992100 0.8 1005683
14:00+16w7116642 1.1 10051455
17:00+15w811635 0.1 10061503
20:00+12wsw712825 0.3 10071068
16 may, sun
sun1623:00+10wsw6139040 0.1 1009777
02:00+10wsw6139136 0.3 1009795
05:00+10wsw6139186 0.2 1009808
08:00+10wsw61288100 0.3 1009961
11:00+13wsw8126913 0.3 10091369
14:00+14w812663 0.8 10091527
17:00+13w814685 0.9 10091550
20:00+11wsw713836 1.5 10101288